Location: Caltech
(34.1382°N, 118.1253°W)
Time: 14:09:38
(UTC-07:00)

Iridium 49 - Visible Passes

Search period start: 29 May 2016 00:00
Search period end: 08 June 2016 00:00
Orbit: 776 x 779 km, 86.4° (Epoch: 29 May)

Date Brightness Start Highest point End Pass type
(mag) Time Alt. Az. Time Alt. Az. Time Alt. Az.
29 May 8.2 00:57:51 10° NW 01:00:03 18° WNW 01:00:03 18° WNW visible
29 May 7.9 22:43:40 10° NNE 22:46:13 18° ENE 22:46:13 18° ENE visible
30 May 7.5 00:23:27 10° NNW 00:26:42 31° NW 00:26:42 31° NW visible
30 May 6.9 23:49:36 10° N 23:53:21 47° NNW 23:53:21 47° NNW visible
31 May 6.8 23:16:10 10° N 23:20:01 44° NE 23:20:01 44° NE visible
01 Jun 8.5 00:59:06 10° NW 01:00:30 12° WNW 01:00:30 12° WNW visible
01 Jun 7.3 22:43:08 10° NNE 22:46:41 27° ENE 22:46:41 27° ENE visible
02 Jun 7.8 00:23:58 10° NNW 00:27:10 24° WNW 00:27:10 24° WNW visible
02 Jun 7.9 22:10:53 10° NE 22:13:22 15° ENE 22:13:22 15° ENE visible
02 Jun 7.0 23:49:50 10° NNW 23:53:51 43° NW 23:53:51 43° NW visible
03 Jun 6.3 23:16:09 10° N 23:20:32 63° N 23:20:32 63° N visible
04 Jun 6.7 22:42:51 10° NNE 22:47:13 41° ENE 22:47:13 41° ENE visible
05 Jun 8.2 00:24:48 10° NW 00:27:42 17° WNW 00:27:42 17° WNW visible
05 Jun 7.4 22:10:04 10° NNE 22:13:56 23° ENE 22:13:56 23° ENE visible
05 Jun 7.3 23:50:13 10° NNW 23:54:24 32° WNW 23:54:24 32° WNW visible
06 Jun 8.1 21:38:36 10° ENE 21:40:19 11° ENE 21:40:38 11° E visible
06 Jun 6.3 23:16:17 10° N 23:21:07 63° WNW 23:21:07 63° WNW visible
07 Jun 6.0 22:42:45 10° N 22:47:50 65° ENE 22:47:50 65° ENE visible
